Tracking 35331 objects as of 14-Sep-2026
HD Live streaming from Space Station
objects crossing your sky now

STARLINK-32838


STARLINK-32838 is no longer on orbit
STARLINK-32838 is classified as:


NORAD ID: 62827
Int'l Code: 2025-018X
Launch date: January 24, 2025
Source: United States (US)
Launch site: AIR FORCE WESTERN TEST RANGE (AFWTR)
Decay date: 2026-01-05
Your satellite tracking list
Your tracking list is empty




NASA's NSSDC Master Catalog

Two Line Element Set (TLE):
1 62827U 25018X   26004.90952244  .05921788  12668-0  66206-2 0  9993
2 62827  53.1527 201.3101 0000925 291.8329  68.2610 16.15283336 54020
Source of the keplerian elements: AFSPC